Simultaneous Nadir Overpasses (SNOs) Predictions

Prediction of SNOs over PacNW region [( 10.00, 139.50) to ( 22.70, 165.60)] between AQUA and NPP Satellites:

Table of predicted SNOs over PacNW region for the next 30.0 days since TLE Epoch: 3/9/2013
Index Date (AQUA) Time (AQUA) AQUA Lat,Lon Date (NPP) Time (NPP) NPP Lat,Lon Distance(km) Time Diff (sec)
1 03/10/2013 15:10:36 21.47, 159.54 03/10/2013 15:10:16 21.98, 156.86 282.81 20
2 03/18/2013 15:59:43 22.60, 147.46 03/18/2013 16:00:48 23.24, 144.46 315.60 65
3 03/26/2013 15:10:10 22.65, 159.88 03/26/2013 15:10:10 23.28, 157.14 288.73 0
4 04/03/2013 15:59:27 22.64, 147.57 04/03/2013 16:01:02 23.32, 144.45 328.85 95




NCC Satellite Simultaneous Nadir Overpasses (SNOs) Prediction Service
